Flag for Germany Weather past 2 weeks in Achim, Lower Saxony, Germany

Now
59 °F

Partly sunny.


Feels Like: 57 °F
Forecast: 40 / 66 °F
Wind: 13 mph from Northwest

Location: Bremen Airport

Current Time: May 23, 2015 at 4:08:45 PM

Latest Report: May 23, 2015 at 3:20 PM


Visibility: N/A

Pressure: 30.15 "Hg

Humidity: 59%

Dew point: 45 °F

Location of AchimLocation

Historic Weather in Achim — Graph

°F

Achim temperature yesterday

Maximum temperature yesterday: 66 °F (at 1:50 PM)
Minimum temperature yesterday: 41 °F (at 5:20 AM)
Average temperature yesterday: 57 °F

Past Weeks' High & Low Weather Summary

 TemperatureHumidityPressure
High75 °F (May 11, 4:50 PM)100% (May 16, 1:50 AM)30.33 "Hg (May 16, 1:50 AM)
Low34 °F (May 16, 5:20 AM)36% (May 11, 6:20 PM)29.59 "Hg (May 18, 7:20 PM)
Average53 °F72%30.04 "Hg
* Reported May 8 3:20 PM — May 23 3:20 PM, Achim, Weather by CustomWeather, © 2015

Note: Actual official high and low records may vary slightly from our data, if they occured in-between our weather recording intervals... More about our weather records

Advertising

Achim weather history for previous 24 hours

 ConditionsComfort  
Time TempWeatherWind HumidityBarometerVisibility
3:20 PM
Sat, May 23
59 °FPartly sunny.13 mph59%30.15 "HgN/A
2:20 PM57 °FBroken clouds.8 mph67%30.15 "HgN/A
1:50 PM54 °FBroken clouds.9 mph82%30.18 "HgN/A
1:20 PM54 °FPartly sunny.10 mph88%30.18 "HgN/A
12:50 PM52 °FPartly sunny.9 mph94%30.18 "HgN/A
12:20 PM54 °FPartly sunny.10 mph88%30.18 "HgN/A
11:50 AM54 °FBroken clouds.9 mph88%30.18 "HgN/A
11:20 AM52 °FLight rain. Fog.10 mph100%30.18 "Hg3 mi
10:50 AM52 °FLight rain. Fog.12 mph94%30.18 "Hg2 mi
10:20 AM54 °FLight rain. Fog.9 mph94%30.15 "Hg2 mi
9:50 AM55 °FLow clouds.10 mph88%30.15 "Hg4 mi
9:20 AM55 °FOvercast.8 mph88%30.15 "Hg5 mi
8:50 AM55 °FOvercast.9 mph88%30.15 "HgN/A
8:20 AM55 °FPartly sunny.10 mph82%30.15 "HgN/A
7:50 AM55 °FPartly sunny.7 mph82%30.12 "HgN/A
7:20 AM55 °FPartly sunny.6 mph82%30.12 "HgN/A
6:50 AM55 °FPartly sunny.6 mph82%30.12 "HgN/A
6:20 AM52 °FSunny.1 mph94%30.12 "Hg10 mi
5:50 AM52 °FClear.2 mph94%30.12 "Hg10 mi
5:20 AM52 °FClear.2 mph94%30.12 "Hg10 mi
4:50 AM54 °FClear.1 mph88%30.12 "Hg10 mi
4:20 AM54 °FClear.2 mph88%30.12 "Hg10 mi
3:50 AM54 °FClear.2 mph88%30.15 "Hg10 mi
3:20 AM54 °FClear.1 mph88%30.15 "Hg10 mi
2:50 AM54 °FClear.No wind94%30.15 "Hg10 mi
2:20 AM54 °FClear.3 mph88%30.15 "Hg10 mi
1:50 AM54 °FClear.No wind88%30.15 "Hg10 mi
1:20 AM55 °FClear.No wind82%30.18 "Hg10 mi
12:50 AM55 °FClear.1 mph82%30.18 "Hg10 mi
12:20 AM57 °FClear.No wind77%30.18 "Hg10 mi
11:50 PM
Fri, May 22
59 °FPassing clouds.3 mph68%30.18 "HgN/A
11:20 PM59 °FPassing clouds.7 mph68%30.18 "HgN/A
10:50 PM59 °FClear.6 mph68%30.18 "Hg10 mi
10:20 PM59 °FSunny.3 mph72%30.18 "Hg10 mi
9:50 PM59 °FPassing clouds.5 mph72%30.18 "HgN/A
9:20 PM61 °FPassing clouds.5 mph63%30.18 "HgN/A
8:50 PM61 °FSunny.3 mph68%30.18 "Hg10 mi
8:20 PM63 °FSunny.5 mph59%30.18 "Hg10 mi
7:50 PM63 °FSunny.7 mph59%30.18 "Hg10 mi
7:20 PM63 °FPartly sunny.8 mph59%30.18 "HgN/A
6:50 PM63 °FPartly sunny.6 mph59%30.18 "HgN/A
6:20 PM64 °FPartly sunny.5 mph56%30.18 "HgN/A
5:50 PM64 °FPartly sunny.6 mph56%30.18 "HgN/A
5:20 PM64 °FPartly sunny.8 mph52%30.18 "HgN/A
4:50 PM66 °FPartly sunny.8 mph52%30.18 "HgN/A
4:20 PM66 °FPartly sunny.8 mph49%30.18 "HgN/A
Weather by CustomWeather, © 2015

See weather overviewHow to use our weather pages